Theta_e
315 318 332 343 345 347 348 348 347 347 346 346 347 348 348 349 349 348 347 347 347 347 348 348 347 347 347 346 347 348 349 352 355 355 355 356 356 354 356 356 352 351 354
310 316 327 339 342 345 345 345 348 347 347 346 346 347 347 348 347 348 348 349 349 349 349 349 349 348 347 348 349 349 349 350 351 352 351 351 352 355 354 355 352 352 354
307 312 321 334 336 340 341 341 344 344 345 345 345 345 345 346 346 347 347 348 346 347 349 349 349 349 350 349 348 349 349 350 349 351 349 352 350 353 354 354 353 354 355
304 308 318 329 330 331 333 334 335 337 339 341 342 342 342 342 342 343 344 344 345 346 346 347 347 350 350 350 350 349 349 349 347 348 350 350 349 351 353 356 354 353 354
300 305 317 323 324 325 326 327 329 331 333 331 332 335 337 338 338 338 338 339 340 343 345 346 346 348 348 349 349 350 350 349 346 343 349 350 350 348 351 354 355 353 350
297 302 312 317 319 321 321 322 323 325 325 325 326 328 327 327 331 330 332 333 335 337 340 343 344 345 345 346 348 349 349 349 345 345 344 348 349 349 350 354 353 351 348
296 299 306 312 314 316 317 317 318 318 318 318 319 320 320 324 319 318 321 324 326 328 331 335 338 340 342 344 345 346 346 345 345 345 344 344 347 350 351 354 354 353 352
296 298 299 305 309 310 311 312 313 313 313 313 313 313 315 316 312 313 315 317 319 321 322 326 331 333 336 339 343 344 343 340 341 342 343 344 344 348 350 351 353 352 352
296 296 297 298 301 305 307 307 308 308 309 310 309 309 309 309 309 309 310 313 314 315 316 321 325 325 327 333 335 338 338 337 341 342 340 343 343 348 350 351 350 352 352
295 294 294 296 298 299 300 304 305 305 306 306 307 306 305 305 305 305 306 309 311 311 312 317 318 318 317 318 322 327 331 333 339 339 340 340 343 346 348 350 350 351 352
292 293 293 294 295 297 298 298 299 301 302 302 302 304 303 302 302 301 302 304 307 308 309 313 311 311 310 310 312 314 323 335 336 338 338 336 341 343 345 350 349 349 350
290 291 292 293 293 295 295 295 296 296 296 297 298 299 301 300 300 299 299 300 302 304 304 308 308 308 307 307 308 309 313 316 329 335 336 335 341 342 343 347 349 348 350
289 290 290 291 292 293 294 294 294 295 295 296 296 297 299 298 298 297 297 296 299 300 300 302 303 303 304 305 306 306 306 309 317 329 332 332 338 340 342 345 348 348 348
288 289 289 290 291 292 293 293 293 294 294 294 294 296 296 295 295 294 294 295 296 296 298 299 300 302 303 304 304 304 304 305 307 315 325 326 333 338 341 342 346 348 348
288 288 289 290 291 291 292 292 292 292 293 293 294 295 294 293 292 291 292 293 293 295 294 295 297 299 301 302 303 302 302 304 306 309 317 321 326 333 337 341 343 346 348
287 288 289 290 290 291 291 291 291 292 292 292 292 293 292 292 290 290 290 291 291 293 291 292 294 297 299 301 301 301 301 303 304 306 309 317 325 329 334 337 340 343 346
288 288 288 289 289 290 290 290 291 291 291 290 291 291 291 290 289 288 289 289 290 290 289 290 292 295 297 299 299 299 301 302 303 303 306 306 312 323 327 333 337 340 344
287 287 288 289 289 289 289 289 290 290 290 289 289 289 289 288 288 287 287 287 288 288 288 288 289 290 292 294 296 299 301 301 302 303 304 306 308 319 326 327 331 335 339
286 286 287 288 288 288 288 289 288 289 289 288 287 287 288 287 287 286 286 286 287 286 286 287 287 288 288 290 292 295 299 301 302 302 302 304 305 307 317 325 324 326 332
286 286 286 287 287 287 288 287 287 287 287 286 286 286 287 286 286 284 285 285 285 284 284 285 286 288 288 290 291 293 296 298 299 299 300 302 303 304 307 321 327 325 322
285 285 285 285 286 286 285 284 284 284 284 285 285 285 284 284 284 283 284 284 284 283 283 284 285 286 288 290 291 292 294 296 296 298 300 301 301 303 306 313 325 327 327
284 284 284 285 285 285 284 284 284 283 283 284 284 284 283 283 283 282 282 283 283 282 282 283 284 284 283 285 286 289 287 291 295 298 299 300 301 303 305 308 319 325 326
283 284 284 284 284 284 284 283 282 282 282 281 282 281 282 282 282 282 282 282 282 282 281 282 283 281 280 284 286 287 284 286 290 295 297 299 298 300 307 307 313 323 324
283 284 284 284 283 283 283 282 280 279 278 279 280 280 280 281 281 281 281 281 281 281 280 282 281 281 281 280 283 285 289 288 283 283 293 297 299 298 298 301 307 319 323
283 283 283 283 282 282 282 281 280 278 278 279 278 278 278 279 280 280 280 280 280 280 280 280 280 279 280 280 281 282 283 285 287 285 282 289 295 297 299 300 303 305 314
283 283 282 281 281 281 281 280 278 276 276 276 276 276 276 277 278 278 279 279 279 279 279 279 279 279 279 280 282 281 280 279 281 284 284 286 290 294 297 298 301 303 307
Wind_Speed
7 13 16 15 14 14 11 8 7 4 4 5 6 7 6 7 7 8 8 8 8 7 6 7 7 8 9 9 9 9 8 8 9 8 8 8 8 9 9 8 9 9 9
7 11 16 13 15 16 16 16 17 10 7 6 7 8 9 9 9 9 10 10 10 10 10 9 9 8 8 7 7 8 10 9 9 9 9 9 8 9 9 8 10 10 12
4 8 10 14 14 16 17 18 18 18 17 17 16 16 16 15 13 12 12 10 11 12 13 12 12 10 7 5 6 7 9 9 9 10 8 8 9 9 12 10 11 13 13
4 8 9 13 16 16 16 17 18 18 17 19 18 18 18 17 17 18 17 15 13 12 13 13 14 12 9 8 8 8 7 7 8 10 8 8 9 9 12 10 12 15 14
8 7 8 14 14 15 16 17 17 18 18 18 17 16 16 18 18 18 17 17 17 16 15 15 14 14 12 10 10 9 7 7 7 8 9 9 8 9 12 12 12 13 12
6 5 7 11 12 14 15 16 17 16 17 17 16 17 18 16 17 20 20 19 18 18 18 16 16 16 14 12 12 12 8 8 7 8 8 10 11 11 14 14 10 12 12
5 6 7 12 13 14 15 16 16 16 16 16 16 16 16 17 18 17 17 17 18 18 19 19 18 18 15 13 13 13 12 8 9 9 9 10 11 13 16 16 12 13 14
6 5 6 9 13 15 15 15 15 15 15 15 16 15 14 15 16 16 16 16 16 17 18 18 18 19 19 16 15 13 10 7 9 9 9 9 11 14 18 18 16 16 18
6 7 6 6 7 12 14 14 14 15 14 15 15 16 16 16 17 17 16 16 16 16 17 15 16 18 19 18 18 17 12 9 11 8 10 8 11 17 19 20 19 17 18
6 6 6 5 5 5 6 13 14 15 15 14 14 14 13 14 15 18 17 18 18 17 17 15 15 17 18 18 18 19 17 14 12 11 8 9 11 19 21 20 20 19 20
5 5 4 5 5 5 7 9 11 14 14 13 12 14 10 8 9 12 14 17 17 18 19 15 16 16 16 15 17 19 17 7 10 8 8 9 15 19 23 21 20 21 21
4 4 4 4 5 5 6 7 6 6 6 7 8 8 6 8 8 9 10 15 16 16 16 17 17 16 11 8 8 12 7 10 9 10 8 10 17 20 22 23 21 22 23
4 3 4 4 4 6 5 4 3 4 4 5 8 8 7 7 7 7 6 6 7 12 8 11 11 8 11 8 8 8 10 9 7 8 11 12 18 23 24 23 23 24 24
7 5 4 4 5 5 3 3 4 4 4 5 6 8 6 5 7 7 6 8 7 7 9 9 7 10 11 12 11 12 12 11 8 7 9 13 17 23 25 26 26 25 26
8 6 5 4 5 4 5 4 4 5 5 6 6 6 6 7 7 7 7 7 8 8 9 9 9 9 10 12 11 13 13 13 13 8 7 13 17 22 26 28 28 28 27
8 7 5 5 5 5 5 5 4 4 4 3 3 5 8 6 7 7 7 8 8 8 9 9 10 10 10 11 12 13 14 13 14 14 10 11 16 20 24 29 30 29 30
8 8 7 6 4 5 4 3 2 1 2 3 3 5 6 6 7 7 6 7 7 9 10 9 10 10 10 10 13 12 12 14 12 15 13 11 14 17 20 25 29 30 29
9 9 7 5 5 4 3 1 0 0 1 2 3 3 4 5 6 7 6 6 7 7 7 8 9 9 10 10 11 11 11 13 15 15 14 12 12 12 14 21 25 28 30
12 11 8 6 6 4 2 2 3 3 2 3 3 3 4 6 6 7 6 6 8 7 7 7 8 9 10 10 11 11 11 12 14 12 17 16 16 15 13 18 21 23 27
11 9 8 6 5 3 1 3 3 3 3 3 3 4 6 6 7 7 6 6 7 6 7 7 10 9 10 10 13 13 12 13 13 14 16 13 15 18 18 18 13 13 23
9 9 8 8 5 3 2 1 2 2 3 3 3 5 7 7 7 8 6 7 7 7 9 9 9 11 8 9 12 11 12 14 16 13 13 13 17 17 18 18 14 12 12
12 11 9 8 7 5 3 2 2 2 3 4 4 4 6 8 9 8 8 8 8 8 10 10 10 9 8 6 7 10 11 9 10 11 9 11 15 12 16 19 20 20 16
13 13 11 10 8 6 6 2 1 2 3 3 3 6 6 9 10 9 9 9 9 8 8 10 9 11 10 8 11 9 7 9 14 9 11 8 13 11 12 17 21 21 20
14 11 10 9 8 7 8 5 4 3 3 2 4 7 9 9 10 9 9 9 10 8 11 10 9 9 11 13 10 12 15 14 10 17 8 11 11 13 15 12 13 18 21
14 12 10 8 6 5 6 5 3 4 4 6 6 10 10 10 9 10 10 10 11 9 11 12 12 11 10 13 11 11 11 12 16 14 21 13 13 13 12 12 12 12 17
12 12 11 10 7 6 5 5 4 6 6 6 6 7 7 7 7 9 10 10 11 12 12 12 13 15 14 15 12 12 11 11 12 12 16 17 16 15 14 14 12 12 12
Wind_Direction
348 341 344 4 25 28 28 13 344 338 332 329 336 333 333 335 333 332 330 327 330 334 337 337 334 326 325 327 327 318 315 317 305 276 257 258 275 269 255 207 207 208 209
317 335 341 19 30 32 40 39 43 37 9 348 336 333 337 334 326 321 318 318 317 322 322 327 326 328 326 321 316 310 312 307 313 279 257 245 258 261 255 213 208 216 204
353 338 342 36 42 39 44 42 44 44 44 39 35 33 28 19 5 345 330 321 318 320 321 320 320 317 313 290 290 294 299 303 310 288 268 256 251 249 254 234 213 216 208
11 359 347 42 50 50 48 48 47 47 45 41 39 38 37 29 23 20 15 4 346 326 318 314 315 315 316 309 288 274 278 288 297 295 273 255 247 249 257 240 223 217 214
37 8 10 48 50 55 55 54 53 53 50 46 39 36 34 33 33 28 20 12 6 355 334 320 313 309 315 311 305 307 287 282 280 290 281 265 259 259 260 252 220 214 215
51 22 26 55 57 58 56 55 57 57 56 51 47 48 43 36 34 32 28 20 15 7 2 348 330 317 314 305 300 295 280 269 273 286 279 271 259 257 260 249 224 214 206
64 44 20 55 56 57 57 57 56 55 53 51 49 49 46 53 42 35 32 26 18 8 4 359 353 348 327 313 305 295 292 277 277 277 273 270 265 253 257 257 238 221 211
77 61 52 39 51 53 52 54 54 52 53 51 51 50 49 49 41 36 32 25 21 15 9 2 358 354 348 338 310 293 283 257 280 277 271 271 265 251 259 254 244 229 214
67 63 55 52 52 49 54 51 49 45 44 45 45 43 39 37 35 31 28 23 16 10 4 3 3 360 355 346 344 331 294 268 280 278 275 266 259 258 253 254 247 233 219
76 69 57 50 50 60 50 47 46 42 40 36 34 37 36 34 32 25 19 14 9 6 1 1 360 356 352 348 351 351 331 300 290 278 265 263 248 263 262 251 247 239 227
83 69 59 50 42 35 48 42 41 39 39 33 27 21 20 23 22 23 16 12 8 3 356 355 352 351 348 346 344 339 333 317 301 281 275 251 240 257 264 260 245 241 233
128 89 71 69 61 55 61 49 49 49 46 38 29 21 17 16 14 13 12 9 3 0 355 348 344 343 342 340 332 334 325 321 313 292 281 254 250 256 259 263 253 241 237
138 111 83 82 79 68 61 55 43 42 36 30 27 22 17 10 7 4 1 0 0 357 352 344 339 337 330 324 321 315 313 313 306 299 285 266 263 264 261 258 258 245 238
149 124 107 101 104 90 90 71 60 48 39 32 21 20 18 11 5 0 1 355 357 352 345 340 330 323 320 313 308 306 304 300 295 291 290 277 267 266 263 260 256 251 240
151 153 153 129 96 86 74 58 47 37 33 20 19 19 19 10 2 353 354 355 352 349 347 334 326 316 311 307 304 303 298 295 292 287 286 270 262 265 265 261 258 255 246
159 160 153 103 88 79 66 50 41 35 25 19 15 18 21 11 358 350 346 351 349 347 336 329 327 317 309 306 301 297 290 288 288 288 283 286 266 256 258 259 258 256 252
167 156 154 127 112 98 95 72 62 49 22 12 0 9 17 6 347 337 337 345 347 334 327 327 325 321 311 307 302 297 291 285 280 283 283 279 284 266 245 253 259 257 253
154 164 161 145 129 117 119 91 353 323 330 350 353 343 350 346 337 334 332 333 335 329 328 327 320 318 313 310 302 297 295 288 284 279 278 278 276 276 256 244 249 251 252
169 164 162 159 158 142 112 4 323 315 325 317 314 314 304 319 327 328 321 320 332 327 322 315 316 306 311 308 301 292 282 278 281 280 273 272 273 268 273 251 239 240 245
167 164 159 163 160 130 78 340 314 292 271 287 292 294 317 312 304 305 306 311 326 320 315 310 308 307 300 305 304 295 285 274 271 266 267 268 265 264 261 258 244 236 237
171 163 167 163 173 156 178 250 258 247 263 258 276 274 293 295 295 311 310 313 321 322 317 307 306 303 305 315 305 297 285 281 271 269 261 259 259 258 258 254 245 238 239
177 178 169 174 173 188 180 201 239 277 277 263 258 259 294 288 304 313 316 311 312 316 312 302 302 311 296 289 285 296 299 304 255 259 268 265 269 269 262 257 249 236 231
184 181 179 175 180 189 185 178 275 293 277 301 310 305 291 290 300 304 305 305 303 301 299 294 295 300 298 300 270 268 289 274 329 261 266 273 285 279 272 257 253 244 230
188 184 176 171 176 184 173 179 201 232 269 246 281 279 287 283 290 288 285 284 284 287 290 284 285 282 285 276 271 249 255 275 284 300 248 270 265 281 285 284 290 264 237
182 179 177 169 174 169 173 182 207 248 263 272 278 284 282 280 276 285 283 279 280 284 284 282 282 277 267 269 263 268 273 271 267 269 284 284 266 259 265 274 280 273 288
177 175 170 167 170 168 176 189 207 242 258 274 280 281 281 285 283 281 285 288 285 285 284 283 278 267 268 263 265 268 267 264 273 270 266 273 272 257 258 259 254 262 269